Regional Weather Roundup
Issued by NWS Charleston, SC

Current Version | Previous Version | Text Only | Print | Product List | Glossary Off
Versions: 1 2 3 4 5 6 7 8 9 10 11 12 13 14 15 16 17 18 19 20 21 22 23 24 25 26 27 28 29 30 31 32 33 34 35 36 37 38 39 40 41 42 43 44 45 46 47 48 49 50
000 ASUS42 KCHS 031228 RWRCHS REGIONAL WEATHER ROUNDUP NATIONAL WEATHER SERVICE CHARLESTON SC 800 AM EDT TUE MAY 03 2016 NOTE: "FAIR" INDICATES FEW OR NO CLOUDS BELOW 12,000 FEET WITH NO SIGNIFICANT WEATHER AND/OR OBSTRUCTIONS TO VISIBILITY. NOT ALL STATIONS ARE QUALITY CONTROLLED. USE DATA WITH CAUTION... ESPECIALLY DEWPOINT OBSERVATIONS. SCZ027-030-031-034>040-042>050-031300- ...SOUTHEAST SOUTH CAROLINA... CITY SKY/WX TMP DP RH WIND PRES REMARKS N CHARLESTON PTSUNNY 76 71 85 SW10 29.86S 6HR MIN TEMP: 72; 6HR MAX TEMP: 76; WATERFRONT PRK N/A 75 73 93 SW6 29.85S MOUNT PLEASANT PTSUNNY 75 73 94 SW7 29.87S JOHNS ISLAND NOT AVBL PINOPOLIS N/A 75 72 88 VRB2 29.78S MONCKS CORNER CLOUDY 72 68 88 SW7 29.87S SUMMERVILLE CLOUDY 73 73 100 SW3 29.88R BEAUFORT MCAS CLOUDY 74 70 87 SW10 29.87F 6HR MIN TEMP: 73; 6HR MAX TEMP: 76; BEAUFORT ARPT FAIR 73 70 88 SW8 29.87F HILTON HEAD IS PTSUNNY 73 72 94 S7 29.98S WALTERBORO NOT AVBL ALLENDALE CLOUDY 72 70 94 VRB3 29.87S ...SOUTHERN MIDLANDS AND PEE DEE... CITY SKY/WX TMP DP RH WIND PRES REMARKS GEORGETOWN NOT AVBL KINGSTREE NOT AVBL ORANGEBURG PTSUNNY 71 69 93 SW7 29.87S 6HR MIN TEMP: 70; 6HR MAX TEMP: 71; 6HR PCP: TRACE; BARNWELL NOT AVBL AIKEN CLOUDY 66 64 94 SW9 29.92R FOG MANNING TSTM 68 68 100 CALM 29.87S COLUMBIA CLOUDY 69 66 90 SW3 29.86S 6HR MIN TEMP: 67; 6HR MAX TEMP: 70; 6HR PCP: 0.33; SUMTER CLOUDY 66 64 91 SW3 29.85S 6HR MIN TEMP: 65; 6HR MAX TEMP: 69; 6HR PCP: 0.39; FLORENCE CLOUDY 67 63 87 SW7 29.87R 6HR MIN TEMP: 66; 6HR MAX TEMP: 71; 6HR PCP: 0.65; MYRTLE BEACH CLOUDY 73 63 68 SW10 29.88S N MYRTLE BEACH CLOUDY 72 67 84 N8 29.87S THUNDER 6HR MIN TEMP: 72; 6HR MAX TEMP: 74; 6HR PCP: TRACE; $$ GAZ063-065-086>088-099>101-113>116-118-119-134>141-150-031300- ...SOUTHEAST GEORGIA... CITY SKY/WX TMP DP RH WIND PRES REMARKS SAVANNAH ARPT CLOUDY 72 68 87 SW7 29.89S 6HR MIN TEMP: 72; 6HR MAX TEMP: 74; HUNTER AAF CLOUDY 72 72 100 SW8 29.87S 6HR MIN TEMP: 72; 6HR MAX TEMP: 75; FORT STEWART CLOUDY 72 69 89 SW5 29.88S 6HR MIN TEMP: 71; 6HR MAX TEMP: 72; STATESBORO CLOUDY 74 74 98 W3 29.90R SYLVANIA CLOUDY 73 72 98 W5 29.90S CLAXTON PTSUNNY 71 71 100 SW5 29.91R FOG ...CSRA...CENTRAL AND FAR SOUTHEAST GEORGIA... CITY SKY/WX TMP DP RH WIND PRES REMARKS THOMSON CLOUDY 70 70 100 SW6 29.93S AUGUSTA-BUSH CLOUDY 68 68 100 SW3 29.87R 6HR MIN TEMP: 65; 6HR MAX TEMP: 68; 6HR PCP: 0.06; AUGUSTA-DANIEL CLOUDY 69 66 90 SW3 29.89R FOG SWAINSBORO CLOUDY 70 68 94 W5 29.92R VIDALIA CLOUDY 70 70 100 SW5 29.92R EASTMAN CLOUDY N/A N/A N/A W3 29.95R HAZLEHURST CLOUDY 73 73 100 W5 29.92R ALMA PTSUNNY 71 69 93 W7 29.93R 6HR MIN TEMP: 69; 6HR MAX TEMP: 71; WAYCROSS CLOUDY 71 71 100 W6 29.93R JESUP FAIR 72 72 100 W5 29.92S BAXLEY CLOUDY 72 72 100 W5 29.92R BRUNSWICK CLOUDY 77 72 83 SW8 29.92S SAINT SIMONS CLOUDY 73 70 90 W8 29.91R 6HR MIN TEMP: 72; 6HR MAX TEMP: 75; $$ SCZ027-028-034-036>038-045-046-048>050-GAZ119-141-031300- ...LAKE AND SUPPLEMENTAL COASTAL OBSERVATIONS... STATION/POSITION TIME TEMP WIND PRES WAVE SWELL AIR SEA DIR/SP/G HT/PER HT/PER/DIR (UTC) (F) (DEG/KT/KT) (MB) (FT/S) (FT/S/D) WINYAH BAY 1145 72 190/ 8 1011.0R LAKE MURRAY 1100 69 250/ 3/ 5 1010.8R ACE BASIN NERRS 1145 74 220/ 2 1012.0S FORT PULASKI 1200 74 74 240/ 5/ 8 1012.3F SAPELO ISLAND 1200 73 240/ 9 1013.0R $$ ANZ835-935-AMZ111-154-330-350-352-354-370-450-454-472-031300- ...C-MAN AND BUOY OBSERVATIONS... STATION/POSITION TIME TEMP WIND PRES WAVE SWELL AIR SEA DIR/SP/G HT/PER HT/PER/DIR (UTC) (F) (DEG/KT/KT) (MB) (FT/S) (FT/S/D) BUOY 41004 1150 76 74 200/ 16/ 19 1011.2R 5/ 6 2/11 BUOY 41008 NOT AVBL FOLLY BEACH CMAN 1200 74 220/ 10/ 12 1011.6S CAPERS NEARSHORE 1108 74 73 230/ 16/ 19 1011.3S FRIPP NEARSHORE 1208 73 74 240/ 12/ 16 1011.1S STATION/POSITION TIME TEMP WIND PRES WAVE SWELL AIR SEA DIR/SP/G HT/PER HT/PER/DIR (UTC) (F) (DEG/KT/KT) (MB) (FT/S) (FT/S/D) 5E ST. MARYS GA 1121 73 N/A 3/ 6 FRYING PAN BUOY 1200 71 73 200/ 21/ 27 1011.8R BUOY 41025 1150 74 73 230/ 19/ 23 1010.3F 5/ 6 2/120/ 9 CAPE LOOKOUT NC 1200 72 220/ 12/ 18 1011.7R BUOY 41002 1150 74 74 170/ 16/ 19 1015.6R 4/ 5 2/ 20/10 BUOY 41010 1120 78 78 180/ 17/ 21 1014.3R ST AUGUSTINE FL 1200 72 71 240/ 5/ 6 1014.7R $$

USA.gov is the U.S. government's official web portal to all federal, state and local government web resources and services.